User: anonymous   Login
Location: Carrizalito
(10.3833°N, 67.0217°W)
Time: 12:34:11
(UTC+00:00)
Language:

JY1SAT - Orbit

View from above orbital plane
View from above orbital plane
View from above satellite
View from above satellite

Ground track
Ground track

The orbit data is extracted from the following two-line orbital elements,

1 43803U 18099AX  23092.15370856  .00008220  00000-0  66641-3 0  9994
2 43803  97.5794 156.7148 0013879  15.2555 344.9084 14.99860054236294
Epoch (UTC): 02 April 2023 03:41:20
Eccentricity: 0.0013879
inclination: 97.5794°
perigee height: 557 km
apogee height: 577 km
right ascension of ascending node: 156.7148°
argument of perigee: 15.2555°
revolutions per day: 14.99860054
mean anomaly at epoch: 344.9084°
orbit number at epoch: 23629

The dashed part of the orbit path shows where the satellite is in the earth's shadow,  

DLR